Weather History for Jacksonville, FL

Change the Weather History Date:

Wednesday, November 7, 2012

  Actual Average Record
Temperature  
Mean Temperature 52 °F 64 °F  
Max Temperature 61 °F 76 °F 87 °F (1986)
Min Temperature 42 °F 53 °F 36 °F (1976)
Degree Days  
Heating Degree Days 13 3  
Month to date heating degree days 33 20  
Since 1 July heating degree days 65 48  
Cooling Degree Days 0 3  
Month to date cooling degree days 7 21  
Year to date cooling degree days 2736 2604  
Growing Degree Days 2 (Base 50)    
Moisture  
Dew Point 43 °F    
Average Humidity 74    
Maximum Humidity 100    
Minimum Humidity 47    
Precipitation  
Precipitation 0.01 in 0.07 in 1.64 in (1902)
Month to date precipitation 0.17 0.52  
Year to date precipitation 51.00 48.00  
Snow  
Snow 0.00 in 0.00 in 0.00 in (2002)
Month to date snowfall 0.0 0.0  
Since 1 July snowfall 0.0 0.0  
Since 1 September snowfall 0.0 0.0  
Snow Depth 0.00 in    
Sea Level Pressure  
Sea Level Pressure 29.93 in    
Wind  
Wind Speed 6 mph (NW)    
Max Wind Speed 17 mph    
Max Gust Speed 23 mph    
Visibility 9 miles    
Events Rain    
T = Trace of Precipitation, MM = Missing Value Source: NWS Daily Summary

Daily Weather History Graph

Daily Weather History Graph

Search for Another Location

Airport:

Trip Planner

Search our weather history database for the weather conditions in past years. The results will help you decide how hot, cold, wet, or windy it might be!

Date:

Astronomy

Nov. 07, 2012 Rise Set
Actual Time 6:46 AM EST 5:34 PM EST
Civil Twilight 6:21 AM EST 5:59 PM EST
Nautical Twilight 5:52 AM EST 6:27 PM EST
Astronomical Twilight 5:24 AM EST 6:56 PM EST
Moon 12:07 AM EST (11/7) 1:16 PM EST (11/7)
Length of Visible Light 11h 37m
Length of Day
10h 47m
Last Quarter, 43% of the Moon is Illuminated
Nov 7
Last Quarter
Nov 13
New
Nov 20
First Quarter
Nov 28
Full
Dec 6
Last Quarter

Hourly Weather History & Observations

Time (EST) Temp. Windchill Dew Point Humidity Pressure Visibility Wind Dir Wind Speed Gust Speed Precip Events Conditions
12:56 AM 52.0 °F - 48.9 °F 89% 29.88 in 9.0 mi NNW 5.8 mph - N/A   Mostly Cloudy
1:52 AM 51.8 °F - 44.6 °F 76% 29.89 in 10.0 mi NNW 8.1 mph - N/A   Overcast
1:56 AM 51.1 °F - 45.0 °F 80% 29.90 in 10.0 mi NNW 5.8 mph - N/A   Overcast
2:56 AM 50.0 °F - 42.1 °F 74% 29.89 in 10.0 mi NNW 10.4 mph - N/A   Overcast
3:56 AM 48.0 °F - 42.1 °F 80% 29.91 in 10.0 mi NW 9.2 mph - N/A   Overcast
4:56 AM 45.0 °F 41.8 °F 39.9 °F 82% 29.92 in 10.0 mi WNW 5.8 mph - N/A   Overcast
5:07 AM 44.6 °F 40.7 °F 39.2 °F 81% 29.92 in 10.0 mi NW 6.9 mph - N/A   Scattered Clouds
5:56 AM 43.0 °F 38.8 °F 39.9 °F 89% 29.93 in 9.0 mi NW 6.9 mph - N/A   Partly Cloudy
6:56 AM 42.1 °F 38.4 °F 39.0 °F 89% 29.94 in 7.0 mi WNW 5.8 mph - N/A   Partly Cloudy
7:56 AM 44.1 °F 40.8 °F 39.9 °F 85% 29.96 in 8.0 mi NW 5.8 mph - N/A   Mostly Cloudy
8:56 AM 46.9 °F - 41.0 °F 80% 29.96 in 9.0 mi WNW 5.8 mph - N/A   Mostly Cloudy
9:56 AM 51.1 °F - 39.9 °F 66% 29.97 in 10.0 mi WNW 11.5 mph - N/A   Mostly Cloudy
10:56 AM 55.9 °F - 39.0 °F 53% 29.96 in 10.0 mi NW 11.5 mph 17.3 mph N/A   Partly Cloudy
11:56 AM 59.0 °F - 39.0 °F 48% 29.94 in 10.0 mi WNW 8.1 mph - N/A   Partly Cloudy
12:56 PM 59.0 °F - 39.0 °F 48% 29.90 in 10.0 mi WNW 8.1 mph 19.6 mph N/A   Scattered Clouds
1:56 PM 59.0 °F - 41.0 °F 51% 29.89 in 10.0 mi West 12.7 mph - N/A   Mostly Cloudy
2:56 PM 59.0 °F - 41.0 °F 51% 29.88 in 10.0 mi NW 9.2 mph 17.3 mph N/A   Mostly Cloudy
3:56 PM 57.9 °F - 42.1 °F 56% 29.89 in 10.0 mi NW 5.8 mph - N/A   Mostly Cloudy
4:56 PM 55.9 °F - 43.0 °F 62% 29.90 in 10.0 mi North 3.5 mph - N/A   Scattered Clouds
5:56 PM 52.0 °F - 46.9 °F 83% 29.91 in 10.0 mi Calm Calm - N/A   Mostly Cloudy
6:56 PM 52.0 °F - 46.9 °F 83% 29.93 in 10.0 mi Calm Calm - N/A   Mostly Cloudy
7:56 PM 52.0 °F - 48.0 °F 86% 29.95 in 10.0 mi Calm Calm - 0.00 in   Mostly Cloudy
8:56 PM 50.0 °F - 46.9 °F 89% 29.99 in 6.0 mi North 3.5 mph - 0.01 in Rain Light Rain
9:56 PM 48.9 °F - 46.9 °F 93% 30.00 in 9.0 mi Calm Calm - 0.00 in   Mostly Cloudy
10:56 PM 45.0 °F 41.8 °F 44.1 °F 97% 30.01 in 5.0 mi West 5.8 mph - N/A   Scattered Clouds
11:56 PM 45.0 °F 42.6 °F 44.1 °F 97% 30.01 in 6.0 mi West 4.6 mph - N/A   Partly Cloudy